Location: B?ogocice
(50.2413°N, 20.2361°E)
Time: 04:30:14
(UTC+00:00)

ALOS - Pass Details

Date: 21 September 2024
Orbit: 670 x 673 km, 98.0° (Epoch: 04 October)

Event Time Altitude Azimuth Distance (km) Brightness Sun altitude
Rises 03:06:59 0° 1° (N) 3,032 5.8 -13.0°
Reaches altitude 10° 03:09:58 10° 341° (NNW) 2,112 4.8 -12.5°
Maximum altitude 03:12:45 16° 303° (WNW) 1,730 4.0 -12.1°
Enters shadow 03:14:17 14° 280° (W) 1,852 4.0 -11.9°
